一网星座-0153星 (ONEWEB-0153 )

导读

ONEWEB-0153是英国OneWeb低轨宽带星座的组网卫星,于2021年3月25日发射入轨,属于OneWeb第五批次组网卫星。该星重约147.5公斤,配备Ku与Ka波段通信天线,搭载霍尔效应推进器,运行在约1200公里近地轨道,单星通信能力可达约7.5Gbps,主要为全球提供低时延宽带互联网接入服务,覆盖航空、海事、偏远地区联网等场景。

基本信息
目录编号:
48044
目录名称:
ONEWEB-0153
国际标识:
2021-025C
轨道中心:
EARTH
卫星名称:
一网星座-0153星
卫星全名:
一网星座-0153星 (ONEWEB-0153 )
卫星状态:
在轨 (已飞行1907 天)
发射日期:
2021-03-25 UTC
国别 :
英国 (GB)
星等 :
--
轨道信息
数据来源 国际轨道数据 AOE轨道数据
星历时间 2026-06-14T05:23:56+0800
12小时前
查看轨道信息
2026-06-11T10:00:00+0800
3天前
查看轨道信息
半长轴 7587.903km 7587.911km
偏心率 0.0001868 0.0001877
轨道倾角 87.895° 87.895°
近地点辐角 98.002° 96.998°
升交点赤经 320.879° 321.439°
平近点角 262.132° 311.768°
近地点 1208.348km 1208.349km
远地点 1211.184km 1211.199km
周期 109.633分钟 109.633分钟
每日圈数 13.134699 13.13468
详细信息
平衡模式:
三轴稳定
覆盖范围:
全球
运营商:
一网卫星公司
运营商所在国:
英国
制造商(研发单位):
一网卫星公司
制造商所在国:
英国
使用方式:
暂无
卫星简介
OneWeb卫星网络由648颗重约125公斤的微型卫星组成,运行在1200公里的轨道上。 每颗卫星都能够提供至少每秒8千兆位的吞吐量,以使用其高吞吐量的Ku频段有效载荷为家庭和移动平台提供互联网接入。该卫星仍在工作。
2D轨道图
3D轨道图
轨道高度分析图
轨道倾角分析图
轨道综合分析图
查看轨道综合分析图